| time (UTC) | temp F | wind direction | speed MPH | gust MPH | rain 1hr in | rain 24hr in | rain mn in | humidity % | barometer mb |
| 20260905215536 | 69 | 323 | 4.0 | 11.0 | 0.00 | 0.07 | 0.07 | 61 | 1022.4 |
| 20260905215059 | 69 | 257 | 3.0 | 11.0 | 0.00 | 0.07 | 0.07 | 61 | 1022.4 |
| 20260905214602 | 69 | 274 | 3.0 | 11.0 | 0.00 | 0.07 | 0.07 | 61 | 1022.4 |
| 20260905214036 | 69 | 267 | 4.0 | 9.0 | 0.00 | 0.07 | 0.07 | 60 | 1022.3 |
| 20260905213536 | 69 | 346 | 3.0 | 11.0 | 0.00 | 0.07 | 0.07 | 60 | 1022.3 |
| 20260905213100 | 70 | 306 | 5.0 | 13.0 | 0.00 | 0.07 | 0.07 | 60 | 1022.3 |
| 20260905212536 | 70 | 313 | 6.0 | 13.0 | 0.00 | 0.07 | 0.07 | 59 | 1022.2 |
| 20260905212034 | 70 | 237 | 5.0 | 13.0 | 0.00 | 0.07 | 0.07 | 59 | 1022.2 |
| 20260905211628 | 70 | 205 | 5.0 | 13.0 | 0.00 | 0.07 | 0.07 | 59 | 1022.0 |
| 20260905211036 | 70 | 277 | 5.0 | 13.0 | 0.00 | 0.07 | 0.07 | 59 | 1022.0 |
| 20260905210535 | 70 | 243 | 5.0 | 13.0 | 0.00 | 0.07 | 0.07 | 59 | 1022.1 |
| 20260905210115 | 70 | 216 | 6.0 | 14.0 | 0.00 | 0.07 | 0.07 | 58 | 1022.1 |
| 20260905205534 | 70 | 343 | 6.0 | 15.0 | 0.00 | 0.07 | 0.07 | 58 | 1022.1 |
| 20260905205037 | 70 | 232 | 6.0 | 15.0 | 0.00 | 0.07 | 0.07 | 58 | 1022.0 |
| 20260905204606 | 70 | 267 | 6.0 | 12.0 | 0.00 | 0.07 | 0.07 | 57 | 1022.1 |
| 20260905204036 | 70 | 274 | 7.0 | 12.0 | 0.00 | 0.07 | 0.07 | 57 | 1022.0 |
| 20260905203536 | 70 | 268 | 5.0 | 11.0 | 0.00 | 0.07 | 0.07 | 58 | 1021.9 |
| 20260905203118 | 70 | 260 | 4.0 | 12.0 | 0.00 | 0.07 | 0.07 | 57 | 1022.0 |
| 20260905202538 | 70 | 236 | 5.0 | 12.0 | 0.00 | 0.07 | 0.07 | 57 | 1021.9 |
| 20260905202035 | 70 | 228 | 6.0 | 12.0 | 0.00 | 0.07 | 0.07 | 57 | 1021.9 |
| 20260905201600 | 70 | 245 | 4.0 | 10.0 | 0.00 | 0.07 | 0.07 | 58 | 1022.0 |
| 20260905201034 | 70 | 208 | 4.0 | 8.0 | 0.00 | 0.07 | 0.07 | 58 | 1021.9 |
| 20260905200536 | 70 | 216 | 3.0 | 11.0 | 0.00 | 0.07 | 0.07 | 58 | 1021.8 |
| 20260905195541 | 70 | 245 | 5.0 | 13.0 | 0.00 | 0.07 | 0.07 | 58 | 1021.8 |
| 20260905195037 | 70 | 266 | 4.0 | 13.0 | 0.00 | 0.07 | 0.07 | 59 | 1021.8 |
| 20260905194556 | 70 | 246 | 4.0 | 11.0 | 0.00 | 0.07 | 0.07 | 59 | 1021.8 |
| 20260905194036 | 70 | 251 | 4.0 | 13.0 | 0.00 | 0.07 | 0.07 | 59 | 1021.7 |
| 20260905193537 | 70 | 238 | 5.0 | 13.0 | 0.00 | 0.07 | 0.07 | 59 | 1021.7 |
| 20260905193057 | 70 | 234 | 5.0 | 11.0 | 0.00 | 0.07 | 0.07 | 59 | 1021.7 |
| 20260905192535 | 70 | 277 | 4.0 | 13.0 | 0.00 | 0.07 | 0.07 | 59 | 1021.7 |
| 20260905192037 | 70 | 266 | 4.0 | 13.0 | 0.00 | 0.07 | 0.07 | 60 | 1021.7 |
| 20260905191557 | 70 | 236 | 3.0 | 9.0 | 0.00 | 0.07 | 0.07 | 60 | 1021.7 |
| 20260905191037 | 70 | 300 | 4.0 | 9.0 | 0.00 | 0.07 | 0.07 | 59 | 1021.6 |
| 20260905190537 | 70 | 304 | 3.0 | 7.0 | 0.00 | 0.07 | 0.07 | 59 | 1021.6 |
| 20260905190053 | 71 | 228 | 2.0 | 9.0 | 0.00 | 0.07 | 0.07 | 59 | 1021.6 |
| 20260905185538 | 71 | 284 | 3.0 | 9.0 | 0.00 | 0.07 | 0.07 | 59 | 1021.6 |
| 20260905185036 | 71 | 237 | 3.0 | 9.0 | 0.00 | 0.07 | 0.07 | 58 | 1021.5 |
| 20260905184559 | 71 | 219 | 3.0 | 10.0 | 0.00 | 0.07 | 0.07 | 58 | 1021.3 |
| 20260905184036 | 71 | 295 | 4.0 | 10.0 | 0.00 | 0.07 | 0.07 | 58 | 1021.3 |
| 20260905183536 | 71 | 306 | 2.0 | 10.0 | 0.00 | 0.07 | 0.07 | 57 | 1021.1 |
| 20260905183101 | 71 | 267 | 4.0 | 10.0 | 0.00 | 0.07 | 0.07 | 57 | 1021.1 |
| 20260905182535 | 71 | 317 | 4.0 | 10.0 | 0.00 | 0.07 | 0.07 | 57 | 1021.0 |
| 20260905182037 | 72 | 342 | 3.0 | 10.0 | 0.00 | 0.07 | 0.07 | 56 | 1020.9 |
| 20260905181610 | 72 | 255 | 4.0 | 10.0 | 0.00 | 0.07 | 0.07 | 56 | 1020.8 |
| 20260905181037 | 72 | 209 | 5.0 | 10.0 | 0.00 | 0.07 | 0.07 | 56 | 1020.8 |
| 20260905180536 | 72 | 270 | 4.0 | 11.0 | 0.00 | 0.07 | 0.07 | 56 | 1020.8 |
| 20260905180057 | 72 | 339 | 5.0 | 13.0 | 0.00 | 0.07 | 0.07 | 56 | 1020.8 |
| 20260905175537 | 72 | 280 | 3.0 | 13.0 | 0.00 | 0.07 | 0.07 | 55 | 1020.6 |
| 20260905175038 | 72 | 258 | 5.0 | 13.0 | 0.00 | 0.07 | 0.07 | 55 | 1020.5 |
| 20260905174600 | 72 | 266 | 5.0 | 12.0 | 0.00 | 0.07 | 0.07 | 55 | 1020.4 |
| 20260905174038 | 72 | 238 | 4.0 | 15.0 | 0.00 | 0.07 | 0.07 | 54 | 1020.4 |
| 20260905173540 | 72 | 240 | 8.0 | 15.0 | 0.00 | 0.07 | 0.07 | 54 | 1020.3 |
| 20260905173058 | 73 | 269 | 5.0 | 13.0 | 0.00 | 0.07 | 0.07 | 54 | 1020.3 |
| 20260905172536 | 73 | 286 | 5.0 | 17.0 | 0.00 | 0.07 | 0.07 | 54 | 1020.2 |
| 20260905172038 | 73 | 312 | 6.0 | 17.0 | 0.00 | 0.07 | 0.07 | 53 | 1020.2 |
| 20260905171558 | 73 | 311 | 5.0 | 12.0 | 0.00 | 0.07 | 0.07 | 53 | 1020.1 |
| 20260905171036 | 73 | 309 | 4.0 | 15.0 | 0.00 | 0.07 | 0.07 | 53 | 1020.2 |
| 20260905170536 | 73 | 276 | 7.0 | 15.0 | 0.00 | 0.07 | 0.07 | 52 | 1020.1 |
| 20260905170056 | 73 | 250 | 8.0 | 16.0 | 0.00 | 0.07 | 0.07 | 52 | 1020.0 |
| 20260905165540 | 74 | 279 | 5.0 | 16.0 | 0.00 | 0.07 | 0.07 | 52 | 1019.9 |
| 20260905165037 | 74 | 311 | 8.0 | 17.0 | 0.00 | 0.07 | 0.07 | 52 | 1019.8 |
| 20260905164558 | 74 | 355 | 7.0 | 17.0 | 0.00 | 0.07 | 0.07 | 51 | 1019.8 |
| 20260905164035 | 74 | 319 | 6.0 | 17.0 | 0.00 | 0.07 | 0.07 | 51 | 1019.7 |
| 20260905163536 | 74 | 247 | 8.0 | 15.0 | 0.00 | 0.07 | 0.07 | 51 | 1019.6 |
| 20260905163102 | 74 | 239 | 8.0 | 17.0 | 0.00 | 0.07 | 0.07 | 51 | 1019.6 |
| 20260905162537 | 74 | 300 | 7.0 | 17.0 | 0.00 | 0.07 | 0.07 | 51 | 1019.5 |
| 20260905162038 | 74 | 230 | 6.0 | 15.0 | 0.00 | 0.07 | 0.07 | 50 | 1019.5 |
| 20260905161607 | 75 | 309 | 6.0 | 15.0 | 0.00 | 0.07 | 0.07 | 50 | 1019.5 |
| 20260905161036 | 75 | 297 | 4.0 | 17.0 | 0.00 | 0.07 | 0.07 | 51 | 1019.6 |
| 20260905160536 | 75 | 306 | 4.0 | 17.0 | 0.00 | 0.07 | 0.07 | 51 | 1019.5 |
| 20260905160130 | 75 | 306 | 7.0 | 17.0 | 0.00 | 0.07 | 0.07 | 50 | 1019.5 |
| 20260905155537 | 75 | 226 | 9.0 | 18.0 | 0.00 | 0.07 | 0.07 | 50 | 1019.6 |
| 20260905155035 | 75 | 278 | 6.0 | 20.0 | 0.00 | 0.07 | 0.07 | 49 | 1019.5 |
| 20260905154603 | 75 | 360 | 6.0 | 20.0 | 0.00 | 0.07 | 0.07 | 50 | 1019.5 |
| 20260905154036 | 75 | 329 | 8.0 | 17.0 | 0.00 | 0.07 | 0.07 | 49 | 1019.5 |
| 20260905153537 | 75 | 346 | 8.0 | 20.0 | 0.00 | 0.07 | 0.07 | 49 | 1019.4 |
| 20260905153059 | 75 | 242 | 7.0 | 20.0 | 0.00 | 0.07 | 0.07 | 50 | 1019.3 |
| 20260905152536 | 75 | 289 | 10.0 | 17.0 | 0.00 | 0.07 | 0.07 | 49 | 1019.4 |
| 20260905152037 | 75 | 316 | 10.0 | 17.0 | 0.00 | 0.07 | 0.07 | 50 | 1019.3 |
| 20260905151609 | 75 | 321 | 5.0 | 23.0 | 0.00 | 0.07 | 0.07 | 51 | 1019.3 |
| 20260905151036 | 75 | 273 | 7.0 | 28.0 | 0.00 | 0.07 | 0.07 | 50 | 1019.3 |
| 20260905150536 | 75 | 283 | 10.0 | 28.0 | 0.00 | 0.07 | 0.07 | 50 | 1019.3 |
| 20260905150058 | 75 | 333 | 8.0 | 19.0 | 0.00 | 0.07 | 0.07 | 50 | 1019.3 |
| 20260905145537 | 75 | 277 | 7.0 | 17.0 | 0.00 | 0.07 | 0.07 | 50 | 1019.4 |
| 20260905145036 | 75 | 334 | 8.0 | 17.0 | 0.00 | 0.07 | 0.07 | 51 | 1019.4 |
| 20260905144555 | 75 | 246 | 8.0 | 17.0 | 0.00 | 0.07 | 0.07 | 51 | 1019.4 |
| 20260905144036 | 75 | 232 | 8.0 | 15.0 | 0.00 | 0.07 | 0.07 | 51 | 1019.4 |
| 20260905143537 | 75 | 275 | 6.0 | 16.0 | 0.00 | 0.07 | 0.07 | 51 | 1019.3 |
| 20260905143058 | 74 | 222 | 7.0 | 20.0 | 0.00 | 0.07 | 0.07 | 52 | 1019.3 |
| 20260905142538 | 74 | 240 | 6.0 | 20.0 | 0.00 | 0.07 | 0.07 | 52 | 1019.3 |
| 20260905142036 | 74 | 288 | 9.0 | 21.0 | 0.00 | 0.07 | 0.07 | 52 | 1019.5 |
| 20260905141555 | 74 | 242 | 9.0 | 21.0 | 0.00 | 0.07 | 0.07 | 52 | 1019.5 |
| 20260905141036 | 74 | 275 | 9.0 | 20.0 | 0.00 | 0.07 | 0.07 | 52 | 1019.4 |
| 20260905140537 | 74 | 238 | 6.0 | 18.0 | 0.00 | 0.07 | 0.07 | 53 | 1019.5 |
| 20260905140107 | 74 | 232 | 6.0 | 17.0 | 0.00 | 0.07 | 0.07 | 53 | 1019.6 |
| 20260905135536 | 74 | 257 | 9.0 | 17.0 | 0.00 | 0.07 | 0.07 | 53 | 1019.6 |
| 20260905135037 | 74 | 325 | 8.0 | 14.0 | 0.00 | 0.07 | 0.07 | 53 | 1019.6 |
| 20260905134604 | 74 | 201 | 8.0 | 14.0 | 0.00 | 0.07 | 0.07 | 54 | 1019.6 |
| 20260905134038 | 74 | 286 | 8.0 | 18.0 | 0.00 | 0.07 | 0.07 | 53 | 1019.6 |
| 20260905133537 | 74 | 182 | 9.0 | 22.0 | 0.00 | 0.07 | 0.07 | 53 | 1019.6 |
| 20260905133100 | 74 | 244 | 9.0 | 22.0 | 0.00 | 0.07 | 0.07 | 53 | 1019.7 |
| 20260905132539 | 73 | 252 | 11.0 | 19.0 | 0.00 | 0.07 | 0.07 | 53 | 1019.7 |
| 20260905132037 | 73 | 270 | 10.0 | 20.0 | 0.00 | 0.07 | 0.07 | 54 | 1019.8 |
| 20260905131604 | 73 | 164 | 9.0 | 20.0 | 0.00 | 0.07 | 0.07 | 54 | 1019.8 |
| 20260905131036 | 73 | 277 | 12.0 | 20.0 | 0.00 | 0.07 | 0.07 | 53 | 1019.8 |
| 20260905130537 | 74 | 284 | 7.0 | 15.0 | 0.00 | 0.07 | 0.07 | 53 | 1019.8 |
| 20260905130056 | 73 | 342 | 7.0 | 15.0 | 0.00 | 0.07 | 0.07 | 53 | 1019.8 |
| 20260905125536 | 73 | 258 | 8.0 | 20.0 | 0.00 | 0.07 | 0.07 | 55 | 1019.8 |
| 20260905125036 | 73 | 317 | 9.0 | 20.0 | 0.00 | 0.07 | 0.07 | 55 | 1019.7 |
| 20260905124557 | 73 | 262 | 10.0 | 22.0 | 0.00 | 0.07 | 0.07 | 55 | 1019.7 |
| 20260905124037 | 72 | 348 | 8.0 | 22.0 | 0.00 | 0.07 | 0.07 | 56 | 1019.8 |
| 20260905123536 | 72 | 297 | 10.0 | 20.0 | 0.00 | 0.07 | 0.07 | 56 | 1019.8 |
| 20260905123103 | 73 | 298 | 11.0 | 20.0 | 0.00 | 0.07 | 0.07 | 56 | 1019.8 |
| 20260905122536 | 72 | 292 | 8.0 | 20.0 | 0.00 | 0.07 | 0.07 | 57 | 1019.7 |
| 20260905122036 | 72 | 323 | 8.0 | 20.0 | 0.00 | 0.07 | 0.07 | 58 | 1019.7 |
| 20260905121601 | 72 | 276 | 8.0 | 20.0 | 0.00 | 0.07 | 0.07 | 57 | 1019.8 |
| 20260905121036 | 72 | 335 | 9.0 | 18.0 | 0.00 | 0.07 | 0.07 | 57 | 1019.7 |
| 20260905120535 | 72 | 270 | 5.0 | 21.0 | 0.00 | 0.07 | 0.07 | 58 | 1019.8 |
| 20260905120117 | 71 | 209 | 9.0 | 21.0 | 0.00 | 0.07 | 0.07 | 58 | 1019.8 |
| 20260905115536 | 72 | 285 | 10.0 | 20.0 | 0.00 | 0.07 | 0.07 | 58 | 1019.9 |
| 20260905115035 | 71 | 215 | 10.0 | 19.0 | 0.00 | 0.07 | 0.07 | 58 | 1019.9 |
| 20260905114554 | 71 | 332 | 10.0 | 19.0 | 0.00 | 0.07 | 0.07 | 59 | 1019.9 |
| 20260905114035 | 71 | 286 | 11.0 | 21.0 | 0.00 | 0.07 | 0.07 | 58 | 1019.9 |
| 20260905113535 | 71 | 340 | 10.0 | 22.0 | 0.00 | 0.07 | 0.07 | 58 | 1020.0 |
| 20260905113101 | 71 | 236 | 10.0 | 23.0 | 0.00 | 0.07 | 0.07 | 58 | 1020.0 |
| 20260905112537 | 71 | 307 | 10.0 | 23.0 | 0.00 | 0.07 | 0.07 | 57 | 1019.9 |
| 20260905112037 | 71 | 314 | 13.0 | 23.0 | 0.00 | 0.07 | 0.07 | 59 | 1020.0 |
| 20260905111613 | 71 | 306 | 8.0 | 19.0 | 0.00 | 0.07 | 0.07 | 60 | 1019.8 |
| 20260905111037 | 71 | 216 | 7.0 | 22.0 | 0.00 | 0.07 | 0.07 | 60 | 1020.0 |
| 20260905110535 | 71 | 225 | 8.0 | 22.0 | 0.00 | 0.07 | 0.07 | 61 | 1019.9 |
| 20260905110100 | 71 | 280 | 6.0 | 16.0 | 0.00 | 0.07 | 0.07 | 61 | 1019.9 |
| 20260905105536 | 71 | 275 | 6.0 | 17.0 | 0.00 | 0.07 | 0.07 | 62 | 1020.0 |
| 20260905105036 | 70 | 319 | 6.0 | 24.0 | 0.00 | 0.07 | 0.07 | 64 | 1020.0 |
| 20260905104554 | 70 | 239 | 8.0 | 24.0 | 0.00 | 0.07 | 0.07 | 64 | 1019.9 |
| 20260905104036 | 69 | 251 | 11.0 | 24.0 | 0.00 | 0.07 | 0.07 | 64 | 1019.9 |
| 20260905103537 | 69 | 238 | 8.0 | 20.0 | 0.00 | 0.07 | 0.07 | 65 | 1019.9 |
| 20260905103059 | 68 | 294 | 10.0 | 25.0 | 0.00 | 0.07 | 0.07 | 65 | 1019.9 |
| 20260905102536 | 68 | 292 | 13.0 | 25.0 | 0.00 | 0.07 | 0.07 | 65 | 1019.9 |
| 20260905102035 | 68 | 324 | 14.0 | 25.0 | 0.00 | 0.07 | 0.07 | 65 | 1020.0 |
| 20260905101555 | 68 | 13 | 10.0 | 20.0 | 0.00 | 0.07 | 0.07 | 66 | 1020.0 |
| 20260905101036 | 68 | 303 | 8.0 | 17.0 | 0.00 | 0.07 | 0.07 | 66 | 1019.9 |
| 20260905100537 | 69 | 267 | 4.0 | 17.0 | 0.00 | 0.07 | 0.07 | 67 | 1020.2 |
| 20260905100059 | 68 | 288 | 4.0 | 15.0 | 0.00 | 0.07 | 0.07 | 68 | 1019.8 |
| 20260905095536 | 67 | 260 | 4.0 | 17.0 | 0.00 | 0.07 | 0.07 | 69 | 1020.0 |
| 20260905095035 | 67 | 336 | 8.0 | 17.0 | 0.00 | 0.07 | 0.07 | 69 | 1020.1 |
| 20260905094556 | 67 | 30 | 7.0 | 18.0 | 0.00 | 0.07 | 0.07 | 70 | 1020.1 |
| 20260905094037 | 66 | 227 | 9.0 | 18.0 | 0.00 | 0.07 | 0.07 | 70 | 1020.1 |
| 20260905093537 | 66 | 317 | 9.0 | 18.0 | 0.00 | 0.07 | 0.07 | 70 | 1020.1 |
| 20260905093059 | 66 | 269 | 7.0 | 17.0 | 0.00 | 0.07 | 0.07 | 70 | 1020.1 |
| 20260905092538 | 66 | 340 | 5.0 | 13.0 | 0.00 | 0.07 | 0.07 | 71 | 1020.2 |
| 20260905092035 | 65 | 254 | 6.0 | 13.0 | 0.00 | 0.07 | 0.07 | 71 | 1020.1 |
| 20260905091623 | 65 | 5 | 4.0 | 13.0 | 0.00 | 0.07 | 0.07 | 72 | 1020.2 |
| 20260905091036 | 64 | 206 | 2.0 | 9.0 | 0.00 | 0.07 | 0.07 | 73 | 1020.2 |
| 20260905090536 | 64 | 286 | 3.0 | 9.0 | 0.00 | 0.07 | 0.07 | 74 | 1020.4 |
| 20260905090119 | 63 | 248 | 4.0 | 9.0 | 0.00 | 0.07 | 0.07 | 75 | 1020.1 |
| 20260905085537 | 63 | 286 | 3.0 | 9.0 | 0.00 | 0.07 | 0.07 | 75 | 1020.2 |
| 20260905085034 | 63 | 254 | 3.0 | 9.0 | 0.00 | 0.07 | 0.07 | 75 | 1020.2 |
| 20260905084608 | 63 | 300 | 2.0 | 9.0 | 0.00 | 0.07 | 0.07 | 75 | 1020.2 |
| 20260905084037 | 63 | 297 | 5.0 | 9.0 | 0.00 | 0.07 | 0.07 | 74 | 1020.2 |
| 20260905083535 | 63 | 301 | 2.0 | 9.0 | 0.00 | 0.07 | 0.07 | 74 | 1020.1 |
| 20260905083057 | 63 | 226 | 2.0 | 9.0 | 0.00 | 0.07 | 0.07 | 73 | 1020.5 |
| 20260905082536 | 63 | 292 | 3.0 | 9.0 | 0.00 | 0.07 | 0.07 | 72 | 1020.6 |
| 20260905082034 | 64 | 220 | 2.0 | 7.0 | 0.00 | 0.07 | 0.07 | 72 | 1020.8 |
| 20260905081555 | 64 | 277 | 1.0 | 7.0 | 0.00 | 0.07 | 0.07 | 70 | 1020.7 |
| 20260905081035 | 64 | 182 | 2.0 | 7.0 | 0.00 | 0.07 | 0.07 | 70 | 1020.8 |
| 20260905080538 | 64 | 209 | 4.0 | 9.0 | 0.00 | 0.07 | 0.07 | 69 | 1020.8 |
| 20260905075535 | 64 | 352 | 3.0 | 9.0 | 0.00 | 0.07 | 0.07 | 69 | 1020.6 |
| 20260905075036 | 64 | 270 | 3.0 | 10.0 | 0.00 | 0.07 | 0.07 | 69 | 1020.8 |
| 20260905074600 | 64 | 259 | 2.0 | 10.0 | 0.00 | 0.07 | 0.07 | 69 | 1021.1 |
| 20260905074037 | 63 | 235 | 3.0 | 10.0 | 0.00 | 0.07 | 0.07 | 69 | 1021.1 |
| 20260905073536 | 64 | 256 | 3.0 | 8.0 | 0.00 | 0.07 | 0.07 | 68 | 1021.0 |
| 20260905073103 | 63 | 283 | 4.0 | 8.0 | 0.00 | 0.07 | 0.07 | 68 | 1021.2 |
| 20260905072536 | 64 | 304 | 3.0 | 8.0 | 0.00 | 0.07 | 0.07 | 68 | 1021.0 |
| 20260905072036 | 64 | 306 | 4.0 | 9.0 | 0.00 | 0.07 | 0.07 | 68 | 1021.0 |
| 20260905071554 | 64 | 225 | 3.0 | 9.0 | 0.00 | 0.07 | 0.07 | 68 | 1021.0 |
| 20260905071035 | 64 | 306 | 4.0 | 9.0 | 0.00 | 0.07 | 0.07 | 67 | 1020.7 |
| 20260905070536 | 64 | 298 | 3.0 | 9.0 | 0.00 | 0.07 | 0.07 | 68 | 1020.5 |
| 20260905070114 | 64 | 275 | 3.0 | 9.0 | 0.00 | 0.07 | 0.07 | 68 | 1020.5 |
| 20260905065538 | 64 | 299 | 4.0 | 9.0 | 0.00 | 0.07 | 0.07 | 68 | 1020.6 |
| 20260905065037 | 64 | 293 | 3.0 | 10.0 | 0.00 | 0.07 | 0.07 | 67 | 1020.4 |
| 20260905064558 | 64 | 313 | 4.0 | 11.0 | 0.00 | 0.07 | 0.07 | 67 | 1020.7 |
| 20260905064038 | 64 | 288 | 5.0 | 12.0 | 0.00 | 0.07 | 0.07 | 66 | 1020.7 |
| 20260905063535 | 64 | 281 | 6.0 | 12.0 | 0.00 | 0.07 | 0.07 | 65 | 1020.7 |
| 20260905063106 | 64 | 346 | 6.0 | 10.0 | 0.00 | 0.07 | 0.07 | 64 | 1020.4 |
| 20260905062536 | 65 | 323 | 5.0 | 17.0 | 0.00 | 0.07 | 0.07 | 64 | 1020.4 |
| 20260905062035 | 65 | 321 | 7.0 | 17.0 | 0.00 | 0.07 | 0.07 | 62 | 1020.2 |
| 20260905061619 | 65 | 324 | 6.0 | 21.0 | 0.00 | 0.07 | 0.07 | 61 | 1020.1 |
| 20260905061035 | 66 | 288 | 9.0 | 21.0 | 0.00 | 0.07 | 0.07 | 60 | 1019.7 |
| 20260905060539 | 67 | 304 | 7.0 | 21.0 | 0.00 | 0.07 | 0.07 | 59 | 1019.7 |
| 20260905060116 | 67 | 336 | 8.0 | 21.0 | 0.00 | 0.07 | 0.07 | 58 | 1019.5 |
| 20260905055535 | 67 | 5 | 6.0 | 13.0 | 0.00 | 0.07 | 0.07 | 58 | 1019.3 |
| 20260905055036 | 67 | 288 | 6.0 | 14.0 | 0.00 | 0.07 | 0.07 | 58 | 1018.7 |
| 20260905054559 | 67 | 47 | 6.0 | 17.0 | 0.00 | 0.07 | 0.07 | 59 | 1018.6 |
| 20260905054036 | 67 | 329 | 7.0 | 17.0 | 0.00 | 0.07 | 0.07 | 59 | 1018.5 |
| 20260905053537 | 67 | 285 | 7.0 | 17.0 | 0.00 | 0.07 | 0.07 | 59 | 1018.3 |
| 20260905053057 | 67 | 328 | 5.0 | 15.0 | 0.00 | 0.07 | 0.07 | 60 | 1018.1 |
| 20260905052540 | 67 | 286 | 6.0 | 15.0 | 0.00 | 0.07 | 0.07 | 61 | 1018.0 |
| 20260905052039 | 67 | 272 | 4.0 | 19.0 | 0.00 | 0.07 | 0.07 | 62 | 1017.7 |
| 20260905051554 | 67 | 291 | 8.0 | 19.0 | 0.00 | 0.07 | 0.07 | 62 | 1017.8 |
| 20260905051036 | 66 | 278 | 7.0 | 16.0 | 0.00 | 0.07 | 0.07 | 63 | 1017.4 |
| 20260905050536 | 66 | 347 | 5.0 | 13.0 | 0.00 | 0.07 | 0.07 | 65 | 1017.4 |
| 20260905050054 | 66 | 281 | 4.0 | 13.0 | 0.00 | 0.07 | 0.07 | 65 | 1017.3 |
| 20260905045535 | 66 | 320 | 4.0 | 13.0 | 0.00 | 0.07 | 0.07 | 66 | 1017.2 |
| 20260905045037 | 66 | 340 | 4.0 | 13.0 | 0.00 | 0.07 | 0.07 | 66 | 1016.9 |
| 20260905044601 | 66 | 313 | 5.0 | 15.0 | 0.00 | 0.07 | 0.07 | 66 | 1016.7 |
| 20260905044036 | 66 | 303 | 7.0 | 15.0 | 0.01 | 0.07 | 0.07 | 68 | 1016.5 |
| 20260905043535 | 65 | 321 | 6.0 | 13.0 | 0.01 | 0.07 | 0.07 | 70 | 1016.2 |
| 20260905043058 | 65 | 22 | 5.0 | 12.0 | 0.01 | 0.07 | 0.07 | 72 | 1016.6 |
| 20260905042535 | 65 | 292 | 5.0 | 11.0 | 0.01 | 0.07 | 0.07 | 72 | 1016.8 |
| 20260905042035 | 65 | 263 | 3.0 | 14.0 | 0.02 | 0.07 | 0.07 | 72 | 1017.2 |
| 20260905041601 | 65 | 336 | 6.0 | 14.0 | 0.03 | 0.07 | 0.07 | 72 | 1017.1 |
| 20260905041035 | 65 | 283 | 5.0 | 12.0 | 0.03 | 0.07 | 0.07 | 72 | 1016.9 |
| 20260905040535 | 65 | 347 | 5.0 | 15.0 | 0.03 | 0.07 | 0.07 | 72 | 1016.5 |
| 20260905040103 | 66 | 301 | 5.0 | 15.0 | 0.03 | 0.07 | 0.07 | 71 | 1016.4 |
| 20260905035535 | 66 | 344 | 4.0 | 14.0 | 0.03 | 0.07 | 0.07 | 72 | 1016.6 |
| 20260905035038 | 66 | 337 | 6.0 | 14.0 | 0.03 | 0.07 | 0.07 | 73 | 1016.2 |
| 20260905034611 | 66 | 304 | 6.0 | 14.0 | 0.05 | 0.07 | 0.07 | 74 | 1016.1 |
| 20260905034040 | 67 | 307 | 7.0 | 13.0 | 0.06 | 0.06 | 0.06 | 76 | 1016.2 |
| 20260905033535 | 67 | 257 | 4.0 | 9.0 | 0.06 | 0.06 | 0.06 | 76 | 1016.4 |
| 20260905033101 | 67 | 295 | 3.0 | 20.0 | 0.06 | 0.06 | 0.06 | 75 | 1015.8 |
| 20260905032536 | 68 | 314 | 8.0 | 20.0 | 0.06 | 0.06 | 0.06 | 73 | 1015.3 |
| 20260905032035 | 69 | 313 | 10.0 | 20.0 | 0.05 | 0.05 | 0.05 | 72 | 1015.3 |
| 20260905031559 | 70 | 312 | 6.0 | 20.0 | 0.03 | 0.03 | 0.03 | 72 | 1015.4 |
| 20260905031035 | 70 | 355 | 8.0 | 15.0 | 0.03 | 0.03 | 0.03 | 74 | 1015.3 |
| 20260905030535 | 70 | 301 | 8.0 | 15.0 | 0.03 | 0.03 | 0.03 | 74 | 1014.7 |
| 20260905025535 | 72 | 275 | 2.0 | 19.0 | 0.03 | 0.03 | 0.03 | 68 | 1013.8 |
| 20260905025036 | 73 | 281 | 5.0 | 19.0 | 0.03 | 0.03 | 0.03 | 63 | 1013.9 |
| 20260905024603 | 76 | 303 | 9.0 | 19.0 | 0.01 | 0.01 | 0.01 | 55 | 1014.1 |
| 20260905024036 | 76 | 285 | 3.0 | 8.0 | 0.00 | 0.00 | 0.00 | 53 | 1013.9 |
| 20260905023535 | 75 | 300 | 3.0 | 8.0 | 0.00 | 0.00 | 0.00 | 53 | 1013.4 |
| 20260905023054 | 75 | 314 | 3.0 | 8.0 | 0.00 | 0.00 | 0.00 | 53 | 1013.4 |
| 20260905022536 | 75 | 304 | 3.0 | 11.0 | 0.00 | 0.00 | 0.00 | 52 | 1013.4 |
| 20260905022036 | 75 | 317 | 4.0 | 11.0 | 0.00 | 0.00 | 0.00 | 52 | 1013.5 |
| 20260905021600 | 76 | 294 | 3.0 | 8.0 | 0.00 | 0.00 | 0.00 | 51 | 1013.6 |
| 20260905021035 | 76 | 305 | 4.0 | 8.0 | 0.00 | 0.00 | 0.00 | 52 | 1013.7 |
| 20260905020537 | 75 | 360 | 2.0 | 5.0 | 0.00 | 0.00 | 0.00 | 52 | 1013.5 |
| 20260905020058 | 75 | 320 | 2.0 | 4.0 | 0.00 | 0.00 | 0.00 | 52 | 1013.5 |
| 20260905015535 | 75 | 323 | 2.0 | 4.0 | 0.00 | 0.00 | 0.00 | 52 | 1013.4 |
| 20260905015035 | 76 | 312 | 1.0 | 4.0 | 0.00 | 0.00 | 0.00 | 50 | 1013.3 |
| 20260905014549 | 76 | 292 | 2.0 | 5.0 | 0.00 | 0.00 | 0.00 | 49 | 1013.3 |
| 20260905014038 | 76 | 269 | 2.0 | 6.0 | 0.00 | 0.00 | 0.00 | 49 | 1013.4 |
| 20260905013535 | 76 | 275 | 2.0 | 6.0 | 0.00 | 0.00 | 0.00 | 50 | 1013.4 |
| 20260905013056 | 76 | 286 | 2.0 | 6.0 | 0.00 | 0.00 | 0.00 | 50 | 1013.5 |
| 20260905012536 | 75 | 293 | 1.0 | 4.0 | 0.00 | 0.00 | 0.00 | 51 | 1013.5 |
| 20260905012037 | 75 | 349 | 1.0 | 4.0 | 0.00 | 0.00 | 0.00 | 51 | 1013.4 |
| 20260905011604 | 76 | 291 | 1.0 | 5.0 | 0.00 | 0.00 | 0.00 | 50 | 1013.4 |
| 20260905011035 | 76 | 335 | 1.0 | 5.0 | 0.00 | 0.00 | 0.00 | 50 | 1013.4 |
| 20260905010535 | 76 | 286 | 1.0 | 5.0 | 0.00 | 0.00 | 0.00 | 50 | 1013.4 |
| 20260905010104 | 76 | 276 | 1.0 | 6.0 | 0.00 | 0.00 | 0.00 | 51 | 1013.4 |
| 20260905005536 | 75 | 266 | 2.0 | 6.0 | 0.00 | 0.00 | 0.00 | 52 | 1013.4 |
| 20260905005035 | 74 | 304 | 1.0 | 4.0 | 0.00 | 0.00 | 0.00 | 54 | 1013.4 |
| 20260905004602 | 74 | 294 | 1.0 | 4.0 | 0.00 | 0.00 | 0.00 | 54 | 1013.4 |
| 20260905004036 | 74 | 327 | 2.0 | 3.0 | 0.00 | 0.00 | 0.00 | 54 | 1013.3 |
| 20260905003536 | 74 | 0 | 1.0 | 4.0 | 0.00 | 0.00 | 0.00 | 53 | 1013.3 |
| 20260905003059 | 74 | 286 | 2.0 | 4.0 | 0.00 | 0.00 | 0.00 | 53 | 1013.3 |
| 20260905002536 | 73 | 288 | 1.0 | 2.0 | 0.00 | 0.00 | 0.00 | 56 | 1013.2 |
| 20260905002035 | 73 | 288 | 0.0 | 3.0 | 0.00 | 0.00 | 0.00 | 56 | 1013.2 |
| 20260905001604 | 74 | 293 | 0.0 | 3.0 | 0.00 | 0.00 | 0.00 | 55 | 1013.1 |
| 20260905001035 | 73 | 294 | 1.0 | 3.0 | 0.00 | 0.00 | 0.00 | 55 | 1013.1 |
| 20260905000535 | 73 | 298 | 1.0 | 3.0 | 0.00 | 0.00 | 0.00 | 56 | 1013.0 |
| 20260905000113 | 73 | 299 | 1.0 | 4.0 | 0.00 | 0.00 | 0.00 | 57 | 1013.2 |
| 20260904235539 | 71 | 263 | 1.0 | 4.0 | 0.00 | 0.00 | 0.00 | 60 | 1013.1 |
| 20260904235035 | 70 | 313 | 1.0 | 2.0 | 0.00 | 0.00 | 0.00 | 64 | 1013.1 |
| 20260904234600 | 69 | 307 | 0.0 | 0.0 | 0.00 | 0.00 | 0.00 | 66 | 1013.1 |
| 20260904234035 | 69 | 0 | 0.0 | 0.0 | 0.00 | 0.00 | 0.00 | 67 | 1013.1 |
| 20260904233535 | 69 | 0 | 0.0 | 0.0 | 0.00 | 0.00 | 0.00 | 66 | 1013.1 |
| 20260904233119 | 69 | 0 | 0.0 | 0.0 | 0.00 | 0.00 | 0.00 | 66 | 1013.1 |
| 20260904232534 | 69 | 0 | 0.0 | 0.0 | 0.00 | 0.00 | 0.00 | 65 | 1013.1 |
| 20260904232036 | 69 | 0 | 0.0 | 0.0 | 0.00 | 0.00 | 0.00 | 65 | 1013.1 |
| 20260904231606 | 69 | 0 | 0.0 | 0.0 | 0.00 | 0.00 | 0.00 | 65 | 1013.1 |
| 20260904231035 | 69 | 0 | 0.0 | 0.0 | 0.00 | 0.00 | 0.00 | 65 | 1013.0 |
| 20260904230535 | 69 | 0 | 0.0 | 0.0 | 0.00 | 0.00 | 0.00 | 65 | 1013.0 |
| 20260904230100 | 69 | 0 | 0.0 | 0.0 | 0.00 | 0.00 | 0.00 | 65 | 1013.0 |
| 20260904225534 | 69 | 0 | 0.0 | 0.0 | 0.00 | 0.00 | 0.00 | 65 | 1012.9 |
| 20260904225035 | 69 | 0 | 0.0 | 0.0 | 0.00 | 0.00 | 0.00 | 65 | 1012.9 |
| 20260904224607 | 70 | 0 | 0.0 | 0.0 | 0.00 | 0.00 | 0.00 | 64 | 1012.8 |
| 20260904224037 | 70 | 0 | 0.0 | 0.0 | 0.00 | 0.00 | 0.00 | 64 | 1012.7 |
| 20260904223536 | 70 | 0 | 0.0 | 0.0 | 0.00 | 0.00 | 0.00 | 64 | 1012.8 |
| 20260904223131 | 70 | 0 | 0.0 | 0.0 | 0.00 | 0.00 | 0.00 | 65 | 1012.8 |
| 20260904222539 | 70 | 0 | 0.0 | 2.0 | 0.00 | 0.00 | 0.00 | 64 | 1012.8 |
| 20260904222038 | 70 | 0 | 0.0 | 2.0 | 0.00 | 0.00 | 0.00 | 64 | 1012.7 |
| 20260904221559 | 70 | 0 | 0.0 | 3.0 | 0.00 | 0.00 | 0.00 | 64 | 1012.8 |
| 20260904221035 | 69 | 0 | 0.0 | 3.0 | 0.00 | 0.00 | 0.00 | 65 | 1012.8 |
| 20260904220536 | 69 | 271 | 0.0 | 0.0 | 0.00 | 0.00 | 0.00 | 64 | 1012.7 |
| 20260904220109 | 70 | 0 | 0.0 | 0.0 | 0.00 | 0.00 | 0.00 | 63 | 1012.7 |